| time (UTC) | temp C | wind direction | speed KPH | gust KPH | rain 1hr cm | rain 24hr cm | rain mn cm | humidity % | barometer mb |
| 20260506202005 | 15 | 280 | 3.2 | 6.4 | 0.00 | 5.26 | 5.26 | 94 | 1013.7 |
| 20260506201505 | 15 | 277 | 4.8 | 8.0 | 0.00 | 5.26 | 5.26 | 94 | 1013.7 |
| 20260506201006 | 15 | 257 | 3.2 | 8.0 | 0.00 | 5.26 | 5.26 | 94 | 1013.7 |
| 20260506200505 | 15 | 248 | 6.4 | 8.0 | 0.00 | 5.26 | 5.26 | 95 | 1013.7 |
| 20260506200006 | 15 | 239 | 4.8 | 6.4 | 0.00 | 5.26 | 5.26 | 94 | 1013.7 |
| 20260506195505 | 15 | 253 | 3.2 | 6.4 | 0.00 | 5.26 | 5.26 | 94 | 1012.7 |
| 20260506195005 | 15 | 245 | 3.2 | 6.4 | 0.00 | 5.26 | 5.26 | 95 | 1012.7 |
| 20260506194506 | 15 | 235 | 4.8 | 6.4 | 0.00 | 5.26 | 5.26 | 95 | 1012.7 |
| 20260506194005 | 15 | 264 | 4.8 | 8.0 | 0.10 | 5.26 | 5.26 | 95 | 1012.7 |
| 20260506193005 | 15 | 226 | 4.8 | 6.4 | 0.20 | 5.26 | 5.26 | 95 | 1012.7 |
| 20260506192506 | 15 | 259 | 3.2 | 14.5 | 0.20 | 5.26 | 5.26 | 95 | 1012.7 |
| 20260506192005 | 15 | 280 | 4.8 | 14.5 | 0.30 | 5.26 | 5.26 | 94 | 1012.7 |
| 20260506191506 | 15 | 298 | 8.0 | 11.3 | 0.74 | 5.26 | 5.26 | 88 | 1012.7 |
| 20260506191005 | 15 | 291 | 3.2 | 11.3 | 0.84 | 5.26 | 5.26 | 88 | 1012.7 |
| 20260506190506 | 15 | 260 | 6.4 | 11.3 | 0.84 | 5.26 | 5.26 | 88 | 1012.7 |
| 20260506190006 | 15 | 255 | 0.0 | 9.7 | 0.84 | 5.26 | 5.26 | 88 | 1012.7 |
| 20260506185505 | 15 | 259 | 8.0 | 11.3 | 0.84 | 5.26 | 5.26 | 88 | 1011.7 |
| 20260506184505 | 15 | 98 | 0.0 | 6.4 | 0.84 | 5.26 | 5.26 | 87 | 1011.7 |
| 20260506184006 | 15 | 265 | 3.2 | 6.4 | 0.74 | 5.16 | 5.16 | 88 | 1011.7 |
| 20260506183505 | 15 | 9 | 3.2 | 3.2 | 0.74 | 5.16 | 5.16 | 87 | 1011.7 |
| 20260506183006 | 15 | 73 | 1.6 | 3.2 | 0.64 | 5.05 | 5.05 | 87 | 1011.7 |
| 20260506182506 | 15 | 196 | 3.2 | 4.8 | 0.64 | 5.05 | 5.05 | 87 | 1011.7 |
| 20260506182006 | 15 | 222 | 3.2 | 4.8 | 0.53 | 4.95 | 4.95 | 87 | 1011.7 |
| 20260506181505 | 15 | 248 | 3.2 | 4.8 | 0.10 | 4.52 | 4.52 | 87 | 1011.7 |
| 20260506180506 | 15 | 248 | 3.2 | 6.4 | 0.00 | 4.52 | 4.42 | 86 | 1011.7 |
| 20260506180006 | 16 | 270 | 3.2 | 4.8 | 0.30 | 4.52 | 4.42 | 86 | 1011.7 |
| 20260506175506 | 16 | 316 | 3.2 | 4.8 | 0.53 | 4.52 | 4.42 | 86 | 1011.7 |
| 20260506174506 | 16 | 158 | 3.2 | 11.3 | 0.64 | 4.52 | 4.42 | 86 | 1011.7 |
| 20260506173505 | 16 | 276 | 6.4 | 11.3 | 0.64 | 4.52 | 4.42 | 86 | 1011.7 |
| 20260506173006 | 16 | 272 | 6.4 | 14.5 | 0.64 | 4.52 | 4.42 | 86 | 1011.7 |
| 20260506172505 | 16 | 271 | 11.3 | 24.1 | 0.64 | 4.52 | 4.42 | 84 | 1011.7 |
| 20260506172005 | 16 | 267 | 14.5 | 24.1 | 0.64 | 4.52 | 4.42 | 86 | 1011.7 |
| 20260506171505 | 16 | 254 | 9.7 | 17.7 | 0.64 | 4.52 | 4.42 | 87 | 1011.7 |
| 20260506171006 | 16 | 257 | 6.4 | 19.3 | 0.64 | 4.52 | 4.42 | 88 | 1011.7 |
| 20260506170505 | 16 | 270 | 4.8 | 19.3 | 0.64 | 4.52 | 4.42 | 88 | 1011.7 |
| 20260506170006 | 16 | 290 | 6.4 | 9.7 | 0.33 | 4.22 | 4.11 | 88 | 1011.7 |
| 20260506165505 | 16 | 246 | 1.6 | 3.2 | 0.00 | 3.89 | 3.78 | 88 | 1011.7 |
| 20260506165006 | 16 | 194 | 1.6 | 3.2 | 0.00 | 3.89 | 3.78 | 88 | 1011.7 |
| 20260506164505 | 16 | 138 | 3.2 | 3.2 | 0.00 | 3.89 | 3.78 | 88 | 1011.7 |
| 20260506163505 | 16 | 58 | 3.2 | 3.2 | 0.00 | 3.89 | 3.78 | 88 | 1011.7 |
| 20260506163005 | 16 | 147 | 1.6 | 3.2 | 0.00 | 3.89 | 3.78 | 88 | 1011.7 |
| 20260506162506 | 16 | 127 | 0.0 | 3.2 | 0.00 | 3.89 | 3.78 | 88 | 1011.7 |
| 20260506162005 | 16 | 88 | 1.6 | 3.2 | 0.00 | 3.99 | 3.78 | 88 | 1011.7 |
| 20260506161505 | 16 | 68 | 0.0 | 3.2 | 0.00 | 3.99 | 3.78 | 88 | 1011.7 |
| 20260506161005 | 16 | 68 | 1.6 | 4.8 | 0.00 | 3.99 | 3.78 | 88 | 1010.7 |
| 20260506160506 | 16 | 58 | 3.2 | 4.8 | 0.00 | 3.99 | 3.78 | 88 | 1010.7 |
| 20260506155506 | 16 | 338 | 1.6 | 3.2 | 0.00 | 4.11 | 3.78 | 88 | 1011.7 |
| 20260506155006 | 16 | 250 | 0.0 | 3.2 | 0.00 | 4.11 | 3.78 | 88 | 1011.7 |
| 20260506154505 | 16 | 244 | 1.6 | 3.2 | 0.00 | 4.11 | 3.78 | 88 | 1011.7 |
| 20260506153505 | 16 | 262 | 3.2 | 3.2 | 0.00 | 4.11 | 3.78 | 89 | 1011.7 |
| 20260506152505 | 16 | 220 | 3.2 | 4.8 | 0.00 | 4.11 | 3.78 | 89 | 1012.7 |
| 20260506152006 | 16 | 217 | 3.2 | 4.8 | 0.00 | 4.11 | 3.78 | 88 | 1012.7 |
| 20260506151505 | 16 | 247 | 3.2 | 4.8 | 0.00 | 4.11 | 3.78 | 89 | 1012.7 |
| 20260506151005 | 16 | 291 | 1.6 | 4.8 | 0.00 | 4.22 | 3.78 | 89 | 1012.7 |
| 20260506150506 | 16 | 286 | 3.2 | 6.4 | 0.00 | 4.22 | 3.78 | 88 | 1012.7 |
| 20260506150005 | 16 | 269 | 3.2 | 6.4 | 0.00 | 4.22 | 3.78 | 88 | 1012.7 |
| 20260506145506 | 16 | 249 | 3.2 | 4.8 | 0.00 | 4.22 | 3.78 | 88 | 1012.7 |
| 20260506145006 | 16 | 249 | 3.2 | 4.8 | 0.00 | 4.22 | 3.78 | 88 | 1012.7 |
| 20260506144505 | 16 | 270 | 3.2 | 6.4 | 0.00 | 4.22 | 3.78 | 88 | 1012.7 |
| 20260506144006 | 16 | 292 | 4.8 | 6.4 | 0.00 | 4.22 | 3.78 | 88 | 1012.7 |
| 20260506143506 | 15 | 325 | 1.6 | 3.2 | 0.00 | 4.22 | 3.78 | 88 | 1012.7 |
| 20260506143005 | 15 | 90 | 0.0 | 3.2 | 0.00 | 4.22 | 3.78 | 88 | 1012.7 |
| 20260506142506 | 15 | 96 | 1.6 | 3.2 | 0.00 | 4.22 | 3.78 | 88 | 1012.7 |
| 20260506142005 | 15 | 335 | 0.0 | 3.2 | 0.00 | 4.22 | 3.78 | 88 | 1012.7 |
| 20260506140005 | 15 | 251 | 0.0 | 6.4 | 0.00 | 4.22 | 3.78 | 88 | 1012.7 |
| 20260506135505 | 15 | 246 | 0.0 | 6.4 | 0.00 | 4.22 | 3.78 | 88 | 1012.7 |
| 20260506135006 | 15 | 278 | 3.2 | 8.0 | 0.00 | 4.22 | 3.78 | 87 | 1012.7 |
| 20260506134505 | 15 | 290 | 3.2 | 8.0 | 0.00 | 4.22 | 3.78 | 87 | 1012.7 |
| 20260506133505 | 15 | 293 | 3.2 | 9.7 | 0.00 | 4.22 | 3.78 | 87 | 1013.7 |
| 20260506133005 | 15 | 308 | 4.8 | 9.7 | 0.10 | 4.22 | 3.78 | 88 | 1013.7 |
| 20260506132505 | 15 | 324 | 4.8 | 11.3 | 0.20 | 4.22 | 3.78 | 88 | 1013.7 |
| 20260506131505 | 15 | 349 | 6.4 | 9.7 | 0.20 | 4.22 | 3.78 | 88 | 1013.7 |
| 20260506131005 | 15 | 306 | 4.8 | 9.7 | 0.20 | 4.22 | 3.78 | 88 | 1013.7 |
| 20260506130505 | 15 | 320 | 6.4 | 9.7 | 0.20 | 4.22 | 3.78 | 88 | 1013.7 |
| 20260506130005 | 15 | 295 | 6.4 | 12.9 | 0.20 | 4.22 | 3.78 | 88 | 1013.7 |
| 20260506125005 | 15 | 300 | 6.4 | 12.9 | 0.30 | 4.22 | 3.78 | 88 | 1012.7 |
| 20260506124505 | 15 | 300 | 3.2 | 14.5 | 0.30 | 4.22 | 3.78 | 88 | 1012.7 |
| 20260506123505 | 15 | 300 | 6.4 | 9.7 | 0.20 | 4.22 | 3.68 | 88 | 1012.7 |
| 20260506123006 | 15 | 292 | 6.4 | 9.7 | 0.20 | 4.22 | 3.68 | 88 | 1012.7 |
| 20260506122505 | 15 | 280 | 4.8 | 6.4 | 0.10 | 4.11 | 3.58 | 88 | 1012.7 |
| 20260506122006 | 15 | 298 | 3.2 | 6.4 | 0.10 | 4.11 | 3.58 | 88 | 1012.7 |
| 20260506121505 | 15 | 274 | 3.2 | 8.0 | 0.20 | 4.11 | 3.58 | 88 | 1012.7 |
| 20260506121005 | 15 | 275 | 1.6 | 8.0 | 0.20 | 4.11 | 3.58 | 88 | 1013.7 |
| 20260506120006 | 15 | 290 | 6.4 | 6.4 | 0.20 | 4.11 | 3.58 | 88 | 1013.7 |
| 20260506115505 | 15 | 268 | 3.2 | 6.4 | 0.10 | 4.01 | 3.48 | 88 | 1013.7 |
| 20260506115005 | 15 | 266 | 3.2 | 8.0 | 0.10 | 4.01 | 3.48 | 88 | 1013.7 |
| 20260506114505 | 15 | 274 | 4.8 | 11.3 | 0.10 | 4.01 | 3.48 | 88 | 1013.7 |
| 20260506114005 | 15 | 272 | 3.2 | 14.5 | 0.10 | 4.01 | 3.48 | 88 | 1013.7 |
| 20260506113005 | 15 | 338 | 4.8 | 16.1 | 0.10 | 4.01 | 3.48 | 88 | 1013.7 |
| 20260506112506 | 15 | 332 | 6.4 | 11.3 | 0.10 | 4.01 | 3.48 | 88 | 1013.7 |
| 20260506112005 | 15 | 303 | 8.0 | 12.9 | 0.10 | 4.01 | 3.48 | 88 | 1013.7 |
| 20260506111505 | 15 | 296 | 9.7 | 12.9 | 0.10 | 3.91 | 3.38 | 88 | 1013.7 |
| 20260506110505 | 15 | 291 | 6.4 | 9.7 | 0.10 | 3.91 | 3.38 | 88 | 1013.7 |
| 20260506110005 | 15 | 279 | 6.4 | 9.7 | 0.10 | 3.91 | 3.38 | 88 | 1013.7 |
| 20260506105505 | 15 | 255 | 4.8 | 11.3 | 0.10 | 4.01 | 3.38 | 88 | 1014.7 |
| 20260506105005 | 15 | 256 | 6.4 | 11.3 | 0.10 | 4.01 | 3.38 | 88 | 1014.7 |
| 20260506104505 | 15 | 244 | 4.8 | 11.3 | 0.10 | 4.01 | 3.38 | 88 | 1014.7 |
| 20260506104005 | 15 | 253 | 3.2 | 9.7 | 0.10 | 4.01 | 3.38 | 88 | 1013.7 |
| 20260506103505 | 15 | 272 | 6.4 | 9.7 | 0.10 | 4.01 | 3.38 | 88 | 1013.7 |
| 20260506103005 | 15 | 273 | 3.2 | 9.7 | 0.10 | 4.01 | 3.38 | 88 | 1013.7 |
| 20260506102505 | 15 | 277 | 3.2 | 11.3 | 0.10 | 4.01 | 3.38 | 89 | 1013.7 |
| 20260506102005 | 15 | 296 | 4.8 | 11.3 | 0.10 | 4.01 | 3.38 | 89 | 1013.7 |
| 20260506101505 | 15 | 299 | 3.2 | 9.7 | 0.00 | 3.91 | 3.28 | 89 | 1013.7 |
| 20260506101005 | 15 | 295 | 6.4 | 9.7 | 0.00 | 4.01 | 3.28 | 89 | 1013.7 |
| 20260506100505 | 15 | 302 | 3.2 | 8.0 | 0.00 | 4.01 | 3.28 | 90 | 1013.7 |
| 20260506100006 | 15 | 281 | 3.2 | 9.7 | 0.00 | 4.01 | 3.28 | 90 | 1013.7 |
| 20260506095505 | 15 | 276 | 3.2 | 9.7 | 0.00 | 4.01 | 3.28 | 90 | 1013.7 |
| 20260506095006 | 15 | 304 | 3.2 | 14.5 | 0.00 | 4.01 | 3.28 | 91 | 1013.7 |
| 20260506094006 | 15 | 322 | 8.0 | 11.3 | 0.13 | 4.01 | 3.28 | 91 | 1013.7 |
| 20260506093505 | 15 | 338 | 4.8 | 6.4 | 0.13 | 4.01 | 3.28 | 91 | 1013.7 |
| 20260506093005 | 15 | 75 | 3.2 | 6.4 | 0.13 | 4.01 | 3.28 | 91 | 1013.7 |
| 20260506092505 | 15 | 72 | 3.2 | 6.4 | 0.13 | 4.01 | 3.28 | 91 | 1013.7 |
| 20260506092005 | 15 | 60 | 3.2 | 6.4 | 0.23 | 4.01 | 3.28 | 90 | 1013.7 |
| 20260506091505 | 15 | 58 | 3.2 | 6.4 | 0.23 | 4.01 | 3.28 | 91 | 1013.7 |
| 20260506091006 | 15 | 64 | 3.2 | 6.4 | 0.23 | 4.01 | 3.28 | 90 | 1013.7 |
| 20260506090505 | 15 | 94 | 3.2 | 4.8 | 0.33 | 4.01 | 3.28 | 91 | 1013.7 |
| 20260506090005 | 15 | 113 | 0.0 | 3.2 | 0.33 | 4.01 | 3.28 | 92 | 1013.7 |
| 20260506085505 | 15 | 62 | 0.0 | 3.2 | 0.43 | 4.01 | 3.28 | 92 | 1013.7 |
| 20260506085005 | 14 | 45 | 0.0 | 3.2 | 0.43 | 4.01 | 3.28 | 91 | 1013.7 |
| 20260506084506 | 14 | 45 | 3.2 | 3.2 | 0.30 | 3.89 | 3.15 | 91 | 1013.7 |
| 20260506084005 | 14 | 7 | 0.0 | 3.2 | 0.30 | 3.89 | 3.15 | 91 | 1013.7 |
| 20260506083505 | 14 | 240 | 0.0 | 6.4 | 0.30 | 3.89 | 3.15 | 91 | 1013.7 |
| 20260506083005 | 14 | 233 | 1.6 | 6.4 | 0.30 | 3.89 | 3.15 | 91 | 1013.7 |
| 20260506082005 | 14 | 253 | 3.2 | 3.2 | 0.30 | 3.78 | 3.05 | 91 | 1012.7 |
| 20260506081505 | 14 | 273 | 1.6 | 3.2 | 0.30 | 3.78 | 3.05 | 91 | 1012.7 |
| 20260506081005 | 14 | 276 | 3.2 | 4.8 | 0.30 | 3.78 | 3.05 | 91 | 1012.7 |
| 20260506080505 | 14 | 282 | 4.8 | 4.8 | 0.20 | 3.68 | 2.95 | 90 | 1012.7 |
| 20260506073004 | 14 | 192 | 0.0 | 3.2 | 0.53 | 3.58 | 2.84 | 91 | 1013.7 |
| 20260506072505 | 14 | 177 | 1.6 | 3.2 | 0.53 | 3.48 | 2.74 | 91 | 1013.7 |
| 20260506072005 | 13 | 134 | 1.6 | 3.2 | 0.74 | 3.48 | 2.74 | 91 | 1013.7 |
| 20260506071505 | 13 | 65 | 1.6 | 3.2 | 0.74 | 3.48 | 2.74 | 90 | 1013.7 |
| 20260506071005 | 13 | 14 | 0.0 | 4.8 | 0.84 | 3.48 | 2.74 | 90 | 1013.7 |
| 20260506070505 | 13 | 25 | 3.2 | 6.4 | 0.97 | 3.48 | 2.74 | 90 | 1013.7 |
| 20260506062505 | 13 | 209 | 0.0 | 3.2 | 0.53 | 2.95 | 2.21 | 90 | 1013.7 |
| 20260506061504 | 13 | 343 | 0.0 | 3.2 | 0.33 | 2.74 | 2.01 | 90 | 1013.7 |
| 20260506061005 | 13 | 270 | 1.6 | 3.2 | 0.23 | 2.64 | 1.91 | 90 | 1013.7 |
| 20260506060505 | 13 | 216 | 1.6 | 3.2 | 0.10 | 2.51 | 1.78 | 90 | 1013.7 |
| 20260506051005 | 13 | 171 | 0.0 | 3.2 | 0.00 | 2.41 | 1.68 | 90 | 1013.7 |
| 20260506050505 | 13 | 157 | 0.0 | 3.2 | 0.00 | 2.41 | 1.68 | 90 | 1013.7 |
| 20260506045005 | 13 | 0 | 0.0 | 0.0 | 0.00 | 2.41 | 1.68 | 90 | 1013.7 |
| 20260506044505 | 13 | 0 | 0.0 | 0.0 | 0.00 | 2.41 | 1.68 | 90 | 1013.7 |
| 20260506044004 | 13 | 112 | 0.0 | 3.2 | 0.00 | 2.41 | 1.68 | 89 | 1013.7 |
| 20260506043505 | 13 | 110 | 0.0 | 3.2 | 0.00 | 2.41 | 1.68 | 89 | 1013.7 |
| 20260506043004 | 13 | 91 | 1.6 | 3.2 | 0.00 | 2.41 | 1.68 | 89 | 1013.7 |
| 20260506042005 | 13 | 47 | 3.2 | 3.2 | 0.00 | 2.41 | 1.68 | 89 | 1013.7 |
| 20260506041505 | 13 | 48 | 0.0 | 3.2 | 0.00 | 2.41 | 1.68 | 89 | 1013.7 |
| 20260506041005 | 13 | 81 | 1.6 | 3.2 | 0.00 | 2.41 | 1.68 | 89 | 1013.7 |
| 20260506040505 | 13 | 113 | 1.6 | 3.2 | 0.00 | 2.41 | 1.68 | 90 | 1013.7 |
| 20260506035505 | 13 | 0 | 0.0 | 0.0 | 0.00 | 2.41 | 1.68 | 90 | 1013.7 |
| 20260506034505 | 13 | 135 | 0.0 | 1.6 | 0.00 | 2.41 | 1.68 | 90 | 1013.7 |
| 20260506034005 | 13 | 138 | 0.0 | 3.2 | 0.00 | 2.41 | 1.68 | 90 | 1013.7 |
| 20260506033006 | 13 | 158 | 0.0 | 3.2 | 0.00 | 2.41 | 1.68 | 90 | 1013.7 |
| 20260506032505 | 13 | 181 | 0.0 | 3.2 | 0.00 | 2.41 | 1.68 | 90 | 1013.7 |
| 20260506032005 | 13 | 181 | 0.0 | 3.2 | 0.00 | 2.41 | 1.68 | 90 | 1013.7 |
| 20260506031505 | 13 | 1 | 1.6 | 3.2 | 0.00 | 2.41 | 1.68 | 90 | 1013.7 |
| 20260506031005 | 13 | 32 | 1.6 | 3.2 | 0.00 | 2.41 | 1.68 | 89 | 1013.7 |
| 20260506030505 | 13 | 112 | 0.0 | 3.2 | 0.00 | 2.41 | 1.68 | 90 | 1013.7 |
| 20260506030005 | 13 | 0 | 0.0 | 0.0 | 0.00 | 2.41 | 1.68 | 90 | 1013.7 |
| 20260506025504 | 13 | 0 | 0.0 | 0.0 | 0.00 | 2.41 | 1.68 | 90 | 1012.7 |
| 20260506025005 | 13 | 100 | 0.0 | 3.2 | 0.00 | 2.41 | 1.68 | 90 | 1012.7 |
| 20260506024504 | 13 | 98 | 0.0 | 3.2 | 0.00 | 2.41 | 1.68 | 90 | 1012.7 |
| 20260506024005 | 13 | 90 | 1.6 | 3.2 | 0.00 | 2.41 | 1.68 | 90 | 1013.7 |
| 20260506023505 | 13 | 298 | 0.0 | 3.2 | 0.00 | 2.41 | 1.68 | 90 | 1013.7 |
| 20260506023005 | 13 | 300 | 0.0 | 3.2 | 0.00 | 2.41 | 1.68 | 90 | 1013.7 |
| 20260506022505 | 13 | 116 | 1.6 | 3.2 | 0.00 | 2.41 | 1.68 | 90 | 1013.7 |
| 20260506022004 | 13 | 111 | 3.2 | 3.2 | 0.00 | 2.41 | 1.68 | 90 | 1013.7 |
| 20260506021505 | 13 | 45 | 0.0 | 3.2 | 0.00 | 2.41 | 1.68 | 90 | 1013.7 |
| 20260506021005 | 13 | 45 | 0.0 | 3.2 | 0.00 | 2.41 | 1.68 | 90 | 1013.7 |
| 20260506020505 | 13 | 45 | 3.2 | 3.2 | 0.00 | 2.41 | 1.68 | 90 | 1013.7 |
| 20260506020005 | 13 | 45 | 1.6 | 3.2 | 0.00 | 2.41 | 1.68 | 89 | 1013.7 |
| 20260506015505 | 13 | 45 | 1.6 | 3.2 | 0.10 | 2.41 | 1.68 | 90 | 1013.7 |
| 20260506015005 | 13 | 341 | 3.2 | 3.2 | 0.10 | 2.41 | 1.68 | 89 | 1013.7 |
| 20260506014005 | 13 | 209 | 0.0 | 3.2 | 0.20 | 2.41 | 1.68 | 90 | 1013.7 |
| 20260506013505 | 13 | 217 | 1.6 | 3.2 | 0.30 | 2.41 | 1.68 | 89 | 1013.7 |
| 20260506013004 | 13 | 225 | 0.0 | 3.2 | 0.51 | 2.41 | 1.68 | 89 | 1013.7 |
| 20260506012505 | 13 | 204 | 0.0 | 3.2 | 0.64 | 2.41 | 1.68 | 89 | 1013.7 |
| 20260506012004 | 13 | 173 | 0.0 | 3.2 | 0.84 | 2.41 | 1.68 | 89 | 1013.7 |
| 20260506011505 | 13 | 134 | 1.6 | 3.2 | 0.94 | 2.41 | 1.68 | 89 | 1013.7 |
| 20260506011004 | 13 | 46 | 0.0 | 3.2 | 1.04 | 2.41 | 1.68 | 89 | 1013.7 |
| 20260506010505 | 13 | 74 | 0.0 | 3.2 | 1.14 | 2.41 | 1.68 | 89 | 1013.7 |
| 20260506005504 | 13 | 90 | 0.0 | 3.2 | 1.17 | 2.31 | 1.57 | 89 | 1013.7 |
| 20260506005006 | 13 | 102 | 0.0 | 3.2 | 1.17 | 2.31 | 1.57 | 90 | 1013.7 |
| 20260506004506 | 13 | 106 | 1.6 | 3.2 | 1.17 | 2.31 | 1.57 | 90 | 1013.7 |
| 20260506003505 | 13 | 111 | 3.2 | 3.2 | 1.04 | 2.11 | 1.37 | 89 | 1013.7 |
| 20260506003005 | 13 | 327 | 0.0 | 4.8 | 0.97 | 1.91 | 1.17 | 89 | 1013.7 |
| 20260506002505 | 13 | 305 | 0.0 | 4.8 | 0.84 | 1.78 | 1.04 | 89 | 1013.7 |
| 20260506002005 | 13 | 233 | 4.8 | 4.8 | 0.74 | 1.57 | 0.84 | 89 | 1013.7 |
| 20260506001005 | 13 | 261 | 3.2 | 3.2 | 0.64 | 1.37 | 0.64 | 89 | 1013.7 |
| 20260506000505 | 13 | 150 | 3.2 | 3.2 | 0.53 | 1.27 | 0.53 | 89 | 1013.7 |
| 20260506000005 | 13 | 85 | 3.2 | 6.4 | 0.53 | 1.27 | 0.53 | 89 | 1013.7 |
| 20260505235505 | 13 | 56 | 3.2 | 6.4 | 0.41 | 1.14 | 0.41 | 89 | 1013.7 |
| 20260505235005 | 13 | 63 | 3.2 | 6.4 | 0.41 | 1.14 | 0.41 | 89 | 1013.7 |
| 20260505234505 | 13 | 56 | 3.2 | 6.4 | 0.41 | 1.14 | 0.41 | 89 | 1013.7 |
| 20260505233504 | 13 | 74 | 3.2 | 4.8 | 0.33 | 1.07 | 0.33 | 89 | 1013.7 |
| 20260505233004 | 13 | 107 | 3.2 | 4.8 | 0.20 | 0.94 | 0.20 | 89 | 1013.7 |
| 20260505232504 | 13 | 116 | 3.2 | 6.4 | 0.10 | 0.84 | 0.10 | 89 | 1014.7 |
| 20260505232005 | 13 | 281 | 0.0 | 6.4 | 0.10 | 0.84 | 0.10 | 89 | 1014.7 |
| 20260505231505 | 13 | 258 | 3.2 | 4.8 | 0.00 | 0.74 | 0.00 | 88 | 1014.7 |
| 20260505231004 | 13 | 189 | 1.6 | 3.2 | 0.00 | 0.74 | 0.00 | 89 | 1014.7 |
| 20260505230505 | 13 | 0 | 0.0 | 0.0 | 0.00 | 0.74 | 0.00 | 89 | 1014.7 |
| 20260505230005 | 13 | 254 | 0.0 | 4.8 | 0.00 | 0.74 | 0.00 | 89 | 1014.7 |
| 20260505225505 | 13 | 257 | 1.6 | 4.8 | 0.00 | 0.74 | 0.00 | 89 | 1013.7 |
| 20260505225005 | 13 | 256 | 3.2 | 6.4 | 0.00 | 0.74 | 0.00 | 89 | 1013.7 |
| 20260505224505 | 13 | 256 | 3.2 | 6.4 | 0.00 | 0.74 | 0.00 | 89 | 1013.7 |
| 20260505224005 | 13 | 278 | 4.8 | 6.4 | 0.00 | 0.74 | 0.00 | 88 | 1014.7 |
| 20260505223505 | 13 | 261 | 3.2 | 6.4 | 0.00 | 0.74 | 0.00 | 88 | 1014.7 |
| 20260505223005 | 13 | 233 | 3.2 | 6.4 | 0.00 | 0.74 | 0.00 | 88 | 1014.7 |
| 20260505222505 | 13 | 260 | 3.2 | 6.4 | 0.00 | 0.74 | 0.00 | 88 | 1015.7 |
| 20260505222005 | 13 | 261 | 3.2 | 6.4 | 0.00 | 0.74 | 0.00 | 88 | 1015.7 |
| 20260505221504 | 13 | 245 | 4.8 | 6.4 | 0.00 | 0.74 | 0.00 | 88 | 1015.7 |
| 20260505220011 | 13 | 257 | 3.2 | 6.4 | 0.00 | 0.74 | 0.00 | 88 | 1014.7 |
| 20260505215506 | 13 | 247 | 4.8 | 6.4 | 0.00 | 0.74 | 0.74 | 88 | 1015.7 |
| 20260505214007 | 13 | 255 | 6.4 | 9.7 | 0.00 | 0.74 | 0.74 | 89 | 1015.7 |
| 20260505213506 | 13 | 267 | 4.8 | 9.7 | 0.00 | 0.74 | 0.74 | 88 | 1015.7 |
| 20260505213007 | 13 | 247 | 6.4 | 9.7 | 0.00 | 0.74 | 0.74 | 88 | 1015.7 |
| 20260505212506 | 13 | 231 | 4.8 | 8.0 | 0.00 | 0.74 | 0.74 | 89 | 1015.7 |
| 20260505212007 | 13 | 234 | 8.0 | 8.0 | 0.00 | 0.74 | 0.74 | 89 | 1015.7 |
| 20260505211506 | 13 | 251 | 4.8 | 8.0 | 0.00 | 0.74 | 0.74 | 89 | 1015.7 |
| 20260505211007 | 13 | 252 | 6.4 | 8.0 | 0.00 | 0.74 | 0.74 | 88 | 1015.7 |
| 20260505210506 | 13 | 243 | 4.8 | 8.0 | 0.00 | 0.74 | 0.74 | 89 | 1015.7 |
| 20260505205506 | 13 | 239 | 3.2 | 6.4 | 0.00 | 0.74 | 0.74 | 88 | 1014.7 |
| 20260505205007 | 13 | 230 | 4.8 | 6.4 | 0.00 | 0.74 | 0.74 | 88 | 1014.7 |
| 20260505204507 | 13 | 223 | 3.2 | 6.4 | 0.00 | 0.74 | 0.74 | 88 | 1014.7 |
| 20260505204007 | 13 | 219 | 3.2 | 6.4 | 0.00 | 0.74 | 0.74 | 88 | 1015.7 |
| 20260505203506 | 13 | 233 | 4.8 | 8.0 | 0.00 | 0.74 | 0.74 | 88 | 1015.7 |
| 20260505202506 | 13 | 237 | 6.4 | 8.0 | 0.00 | 0.74 | 0.74 | 88 | 1015.7 |